This is the latest recevied weather packets stored in our database for station/object EA1FBN. If no packets are shown the sender has not sent any weather packets the latest 10 day(s).
| Time | Temp. | Humidity | Pressure | Rain* | Wind** | Luminosity | Snow |
|---|---|---|---|---|---|---|---|
| 1777480118 | 14.44° C | 71% | 1007.9 hPa | 0 mm | - | - | - |
| 1777479818 | 15° C | 71% | 1007.8 hPa | 0 mm | - | - | - |
| 1777479518 | 15° C | 70% | 1007.8 hPa | 0 mm | - | - | - |
| 1777479218 | 15.56° C | 67% | 1007.8 hPa | 0 mm | - | - | - |
| 1777478918 | 17.78° C | 65% | 1007.8 hPa | 0 mm | - | - | - |
| 1777478619 | 17.78° C | 64% | 1007.4 hPa | 0 mm | - | - | - |
| 1777478318 | 18.33° C | 61% | 1007.3 hPa | 0 mm | - | - | - |
| 1777478019 | 18.89° C | 61% | 1007.4 hPa | 0 mm | - | - | - |
| 1777477719 | 18.89° C | 60% | 1007.2 hPa | 0 mm | - | - | - |
| 1777477419 | 18.89° C | 59% | 1007.1 hPa | 0 mm | - | - | - |
| 1777477119 | 18.89° C | 60% | 1007.1 hPa | 0 mm | - | - | - |
| 1777476819 | 18.89° C | 59% | 1006.9 hPa | 0 mm | - | - | - |
| 1777476519 | 18.89° C | 60% | 1006.9 hPa | 0 mm | - | - | - |
| 1777476219 | 18.89° C | 59% | 1006.9 hPa | 0 mm | - | - | - |
| 1777475919 | 18.89° C | 61% | 1006.9 hPa | 0 mm | - | - | - |
| 1777475619 | 18.33° C | 61% | 1006.9 hPa | 0 mm | - | - | - |
| 1777475319 | 18.33° C | 61% | 1006.9 hPa | 0 mm | - | - | - |
| 1777475019 | 18.33° C | 64% | 1007 hPa | 0 mm | - | - | - |
| 1777474719 | 18.33° C | 65% | 1007 hPa | 0 mm | - | - | - |
| 1777474419 | 18.33° C | 65% | 1007.1 hPa | 0 mm | - | - | - |
| 1777474119 | 18.33° C | 65% | 1007 hPa | 0 mm | - | - | - |
| 1777473819 | 18.33° C | 67% | 1007.2 hPa | 0 mm | - | - | - |
| 1777473519 | 17.78° C | 66% | 1007.2 hPa | 0 mm | - | - | - |
| 1777473219 | 18.33° C | 63% | 1007.1 hPa | 0 mm | - | - | - |
| 1777472919 | 17.78° C | 66% | 1007 hPa | 0 mm | - | - | - |
* Rain latest hour (hover to see other rain measurements)
** Current wind speed in m/s (hover to see current wind gust speed)